Regional Weather Roundup
Issued by NWS Sioux Falls, SD

Home | Current Version | Previous Version | Text Only | Print | Product List | Glossary Off
Versions: 1 2 3 4 5 6 7 8 9 10 11 12 13 14 15 16 17 18 19 20 21 22 23 24 25 26 27 28 29 30 31 32 33 34 35 36 37 38 39 40 41 42 43 44 45 46 47 48 49 50

000
ASUS43 KFSD 280402
RWRFSD

WEATHER ROUNDUP FOR SE SOUTH DAKOTA/SW MINNESOTA/NW IOWA
NATIONAL WEATHER SERVICE SIOUX FALLS SD
1100 PM CDT MON JUL 27 2015

NOTE: "FAIR" INDICATES FEW OR NO CLOUDS BELOW 12,000 FEET WITH NO
SIGNIFICANT WEATHER AND OR OBSTRUCTIONS TO VISIBILITY.


SDZ038>040-050-052>070-280500-
SOUTHEAST SOUTH DAKOTA

CITY           SKY/WX    TMP DP  RH WIND       PRES   REMARKS
BROOKINGS      PTCLDY    75  72  88 SE14      29.84F
CHAMBERLAIN    NOT AVBL
HURON          PTCLDY    79  74  84 SE15      29.71F
MADISON        MOCLDY    75  75 100 SE9G17    29.82F
MITCHELL       PTCLDY    81  73  76 SE18G24   29.74F
SIOUX FALLS    MOCLDY    77  71  82 S12       29.82R
WINNER         FAIR      83  71  67 SE16      29.67F
YANKTON        PTCLDY    79  72  78 SE17      29.78R
$$

MNZ071-072-080-081-089-090-097-098-280500-
SOUTHWEST MINNESOTA

CITY           SKY/WX    TMP DP  RH WIND       PRES   REMARKS
FAIRMONT       CLEAR     73  63  68 SE13      29.91R
JACKSON        CLEAR     72  68  88 SE10      29.91R
LUVERNE        PTCLDY    75  68  78 S7        29.86R
MARSHALL       CLEAR     75  66  73 SE13      29.86R
MONTEVIDEO     CLEAR     73  72  94 S10       29.86R
PIPESTONE      PTCLDY    75  70  83 S13       29.86S
REDWOOD FALLS  CLEAR     75  68  78 S12       29.87R
TRACY          CLEAR     73  70  88 S8        29.87R
WINDOM         CLEAR     73  66  78 SE9G16    29.89S
WORTHINGTON    MOCLDY    73  64  73 SE12G18   29.88S
$$

IAZ001>003-012>014-020>022-031-032-NEZ013-014-SDZ071-280500-
NORTHWEST IOWA

CITY           SKY/WX    TMP DP  RH WIND       PRES   REMARKS
DENISON        MOCLDY    73  70  88 SE16      29.85S
ESTHERVILLE    CLEAR     70  67  90 SE12      29.91R
SIOUX CITY     PTCLDY    76  69  79 SE12      29.83R
SPENCER        CLEAR     73  67  81 SE10      29.89R
$$

ABBREVIATIONS USED IN REMARKS
   TC - TEMPERATURE IN CELSIUS
  WCI - WIND CHILL INDEX
   HX - HEAT INDEX
  VSB - VISIBILITY



USA.gov is the U.S. government's official web portal to all federal, state and local government web resources and services.